Regional Weather Roundup
Issued by NWS Boston, MA

Home | Current Version | Previous Version | Text Only | Print | Product List | Glossary On
Versions: 1 2 3 4 5 6 7 8 9 10 11 12 13 14 15 16 17 18 19 20 21 22 23 24 25 26 27
000
ASUS41 KBOX 271310
RWRBOX

REGIONAL WEATHER ROUNDUP
NATIONAL WEATHER SERVICE TAUNTON MA
900 AM EDT WED JUL 27 2016

NOTE:  "FAIR" INDICATES FEW OR NO CLOUDS BELOW 12,000 FEET WITH NO
SIGNIFICANT WEATHER AND/OR OBSTRUCTIONS TO VISIBILITY.  THE FOLLOWING
OBSERVATION LOCATIONS DO NOT REPORT PRESENT WEATHER...PROVINCETOWN...
SMITHFIELD...BLOCK ISLAND...KEENE...AND OXFORD.

MAZALL-271400-
EASTERN MASSACHUSETTS

CITY           SKY/WX    TMP DP  RH WIND       PRES   REMARKS
BOSTON         MOSUNNY   81  61  50 NE5       29.93S
BEVERLY        SUNNY     79  63  57 CALM      29.92S
LAWRENCE       SUNNY     79  62  56 NW3       29.95S
BEDFORD        SUNNY     80  59  48 N5        29.93R
BLUE HILL        N/A     78  60  53 VRB5      29.95R
NORWOOD        SUNNY     82  62  50 N7        29.93S
MARSHFIELD     SUNNY     81  63  54 VRB6      29.92S
PLYMOUTH       SUNNY     80  61  52 NW3       29.94R
TAUNTON        SUNNY     80  62  54 CALM      29.92F
NEW BEDFORD    SUNNY     81  62  52 VRB3      29.93S
$$

MAZALL-271400-
CAPE COD AND THE ISLANDS

CITY           SKY/WX    TMP DP  RH WIND       PRES   REMARKS
FALMOUTH       SUNNY     79  64  61 N9        29.92R
HYANNIS        SUNNY     77  62  59 NW8       29.92R
CHATHAM        SUNNY     79  64  60 VRB5      29.93R
PROVINCETOWN   SUNNY     76  66  71 NW8       29.93R
NANTUCKET      SUNNY     78  65  63 N9        29.92R
MARTHAS VNYRD  SUNNY     79  65  62 NW6       29.93R
$$

MAZALL-271400-
CENTRAL AND WESTERN MASSACHUSETTS

CITY           SKY/WX    TMP DP  RH WIND       PRES   REMARKS
WORCESTER      SUNNY     77  59  53 NW8       29.98S
FITCHBURG      SUNNY     82  58  43 W3        29.95S
ORANGE         SUNNY     76  61  59 VRB3      29.97S
SPRINGFIELD    SUNNY     76  62  62 CALM      29.95R
WESTFIELD      SUNNY     79  60  52 SW3       29.96R
NORTH ADAMS    SUNNY     71  62  73 CALM      29.99S
PITTSFIELD     MOSUNNY   74  59  59 W6        30.00R
$$

RIZALL-271400-
RHODE ISLAND

CITY           SKY/WX    TMP DP  RH WIND       PRES   REMARKS
PROVIDENCE     MOSUNNY   82  61  48 NE9       29.94S
NEWPORT        SUNNY     81  63  54 VRB5      29.94S
BLOCK ISLAND   SUNNY     78  62  57 CALM      29.95S
SMITHFIELD     SUNNY     79  61  53 NE5       29.96S
WESTERLY       SUNNY     82  62  50 CALM      29.95R
$$

CTZALL-271400-
CONNECTICUT

CITY           SKY/WX    TMP DP  RH WIND       PRES   REMARKS
BRADLEY INTL   MOSUNNY   80  60  50 NW3       29.95R
HARTFORD       SUNNY     80  65  59 CALM      29.95S
BRIDGEPORT     SUNNY     80  63  55 CALM      29.95S
DANBURY        SUNNY     76  63  64 CALM      29.98S
GROTON         MOSUNNY   77  66  68 S5        29.94R
NEW HAVEN      MOSUNNY   79  63  57 N5        29.95S
CHESTER        FAIR      81  64  57 CALM      29.96S
MERIDEN        SUNNY     81  61  50 CALM      29.95S
WILLIMANTIC    NOT AVBL
OXFORD         MOSUNNY   75  61  60 CALM      30.00R
$$

MEZ002-015-021-024-NHZ003-005-008-011-012-014-VTZ005-008-271400-
NORTHERN NEW ENGLAND

CITY           SKY/WX    TMP DP  RH WIND       PRES   REMARKS
PORTLAND ME    MOSUNNY   80  64  58 N7        29.91F
BANGOR ME      MOSUNNY   80  63  55 NW5       29.90R
CONCORD NH     SUNNY     77  61  57 CALM      29.94S
MANCHESTER NH  MOSUNNY   78  60  53 N5        29.92S
NASHUA NH      SUNNY     79  62  56 NW6       29.94S
PORTSMOUTH NH  MOSUNNY   76  65  68 SW3       29.91S
JAFFREY NH     SUNNY     75  60  59 CALM      29.98S
KEENE NH       NOT AVBL
BURLINGTON VT  FAIR      75  62  64 S9        29.94R
MT. WASHINGTON MOSUNNY   55  45  67 NE6         N/A
$$

NYZ052-076-271400-
EASTERN NEW YORK

CITY           SKY/WX    TMP DP  RH WIND       PRES   REMARKS
ALBANY         SUNNY     77  59  53 VRB3      29.97S
NEW YORK CITY  MOSUNNY   80  60  50 E8        29.95S
$$

ANZALL-271400-
MARINE OBSERVATIONS

STATION/POSITION TIME  TEMP    WIND        PRES    VSBY  WAVE
                       AIR SEA DIR/SP/G                  HT/PER
                 (UTC) (F)     (DEG/KT/KT) (MB)    (MI)  (FT/S)
BOSTON BUOY      1250   72 72  270/  4/  4 1013.1R         1
BUZZARDS BAY     1200   75     310/  6/  6 1013.9R
NANTUCKET SOUND  1250   75 74  350/  8/  8 1013.0R         1/ 4
MASS BAY-STELLWA 1204   71 70  290/  2/  4 1013.0R  1 7/8  1
ISLE OF SHOALS   1300   71     320/  3/  4 1013.0R
S OF BLOCK IS    1225      72                N/A           3/ 7
$$

......................KEY.........................
  SKY/WX - SKY CONDITION/PRESENT WEATHER
  TMP    - TEMPERATURE IN FAHRENHEIT
  DWPT   - DEWPOINT IN FAHRENHEIT
  RH     - RELATIVE HUMIDITY IN PERCENT
  WIND   - DIRECTION AND SPEED IN MPH
  PRES   - MEAN SEA LEVEL PRESSURE IN INCHES OF HG
  WCI    - WIND CHILL INDEX
  VSB    - VISIBILITY IN MILES
  HX     - HEAT INDEX
  TC     - TEMPERATURE IN CELSIUS
  VRB    - VARIABLE WIND DIRECTION
  N/A    - NOT AVAILABLE




USA.gov is the U.S. government's official web portal to all federal, state and local government web resources and services.